SL-14 DEB, 45340

Orbit data source: Space-Track

SL-14 DEB, 45340 is space debris in LEO originally from a launch on Thu, 15 Aug 1991 UTC launched from the Plesetsk Missile And Space Complex (PKMTR). Debris objects in space refer to the collection of defunct objects orbiting the Earth. Examples of debris include non-operational satellites, rocket bodies, and fragments generated from explosions, collisions, or faulty payload assembly.

Loading next visibility...
Identifier
45340, 1991-056CE
Orbit
LEO
Country
Flag of CISCIS
Related business
Manufacturer
Unknown
Mission
Spacecraft
Bus & Motor
Unknown
Mass
Unknown
Launch date (UTC)
1991-08-15 (35 years ago)
Launch vehicle
Unknown
Launch site
Plesetsk Missile And Space Complex (PKMTR)
Object type
Payload
Rocket body
Debris
Shape & HBR
Unknown shape, 0.1 m
Radar Cross Section
Medium (>0.1 m² and <1 m²)

Expand to show TLE details & history
Last TLE update: 2 days ago

TLE from 2 days ago
0 SL-14 DEB
1 45340U 91056CE  26171.29077227  .00009892  00000-0  16327-1 0  9998
2 45340  82.5238 106.8276 0065278 230.6684 128.8658 13.45983388305012
Epoch: 2026-06-20T06:58Z
TLE epoch observation values (Epoch: 2026-06-20T06:58:42.724Z)
Latitude
-0.00002°
Longitude
93.64207°
Altitude
1,120.697 km
Speed
7.277 km/s
True Right ascension
07h 07m 18s
True Declination
0° 00' 00"
Sunlit
Object was in daylight at epoch
Visualization orbit readout
Latitude
Unknown
Longitude
Unknown
Altitude
Unknown
Speed
Unknown
Apparent Right ascension
Unknown
Apparent Declination
Unknown
Sunlit
N/A
Visualization observer readout
Local Sidereal Time
21:37:33
Azimuth
Unknown
Elevation
Unknown
Doppler factor
Unknown
Orbital elements
Apogee altitude
1,132.992 km
Perigee altitude
1,035.565 km
Semi-major axis
7,462.415 km
Eccentricity
0.00653
Inclination
82.5238°
RAAN
106.8276°
Arg. of periapsis
230.6684°
True anomaly
129.44525°
Mean anomaly
128.8658°
Eccentric anomaly
129.15582°
Mean motion
3.36685 °/min
Orbital period
106.92 mins
BSTAR
0.016327
Loading maneuver chart data...
Computing Atmospheric mass density...
Loading historical data...
Loading historical data...
Loading historical data...
Loading historical data...
Loading historical data...
Loading historical data...
Loading historical data...

Documentation

Showing up to 5 results
|